Location: Unspecified
(49.2170°N, 0.0000°E)
Time: 17:40:55
(UTC+00:00)

Envisat - Pass Details

Date: 30 November 2020
Orbit: 764 x 766 km, 98.1° (Epoch: 20 January)

Event Time Altitude Azimuth Distance (km) Brightness Sun altitude
Rises 05:54:01 0° 15° (NNE) 3,247 6.3 -15.4°
Reaches altitude 10° 05:56:21 10° 18° (NNE) 2,316 5.5 -15.1°
Maximum altitude 06:01:27 72° 102° (ESE) 809 3.3 -14.3°
Drops below altitude 10° 06:06:30 10° 187° (S) 2,297 5.6 -13.5°
Sets 06:08:49 0° 190° (S) 3,219 6.3 -13.1°
